N7ZEF Weather Reports


time (UTC)temp
C
wind
direction
speed
KPH
gust
KPH
rain 1hr
cm
rain 24hr
cm
rain mn
cm
humidity
%
barometer
mb
20260906220525 28 153 6.4 19.3 0.00 0.00 0.00 11 1020.9
20260906215524 28 173 9.7 17.7 0.00 0.00 0.00 11 1020.9
20260906214523 27 183 12.9 25.7 0.00 0.00 0.00 13 1021.1
20260906213521 28 167 11.3 19.3 0.00 0.00 0.00 13 1021.3
20260906212520 28 121 11.3 19.3 0.00 0.00 0.00 12 1021.4
20260906211518 28 212 11.3 24.1 0.00 0.00 0.00 11 1021.4
20260906210517 29 205 4.8 20.9 0.00 0.00 0.00 10 1021.5
20260906205516 28 294 12.9 19.3 0.00 0.00 0.00 10 1021.7
20260906204514 28 231 12.9 14.5 0.00 0.00 0.00 11 1021.7
20260906203513 28 215 8.0 19.3 0.00 0.00 0.00 12 1021.8
20260906202511 27 236 8.0 33.8 0.00 0.00 0.00 12 1022.2
20260906201510 28 193 4.8 27.4 0.00 0.00 0.00 12 1022.3
20260906200509 27 231 9.7 19.3 0.00 0.00 0.00 12 1022.4
20260906195507 27 188 8.0 17.7 0.00 0.00 0.00 13 1022.5
20260906194506 27 141 8.0 27.4 0.00 0.00 0.00 13 1022.8
20260906193505 27 193 11.3 22.5 0.00 0.00 0.00 13 1022.9
20260906192503 28 127 6.4 19.3 0.00 0.00 0.00 13 1023.1
20260906191502 27 201 12.9 35.4 0.00 0.00 0.00 13 1023.3
20260906190500 28 200 8.0 22.5 0.00 0.00 0.00 12 1023.4
20260906185459 27 134 9.7 32.2 0.00 0.00 0.00 14 1023.6
20260906184458 27 172 11.3 20.9 0.00 0.00 0.00 14 1023.6
20260906183456 27 249 9.7 22.5 0.00 0.00 0.00 14 1023.7
20260906182455 26 224 12.9 22.5 0.00 0.00 0.00 15 1023.9
20260906181454 27 188 3.2 17.7 0.00 0.00 0.00 15 1024.2
20260906180452 26 212 9.7 19.3 0.00 0.00 0.00 15 1024.3
20260906175451 26 221 6.4 27.4 0.00 0.00 0.00 15 1024.6
20260906174449 26 248 12.9 19.3 0.00 0.00 0.00 15 1025.0
20260906173448 26 146 4.8 17.7 0.00 0.00 0.00 15 1025.2
20260906172447 26 229 1.6 9.7 0.00 0.00 0.00 16 1025.2
20260906171445 26 314 4.8 19.3 0.00 0.00 0.00 16 1025.3
20260906170444 26 198 3.2 16.1 0.00 0.00 0.00 17 1025.5
20260906165443 25 212 4.8 16.1 0.00 0.00 0.00 17 1025.5
20260906164441 25 180 1.6 11.3 0.00 0.00 0.00 18 1025.6
20260906163440 25 208 9.7 11.3 0.00 0.00 0.00 18 1025.6
20260906162438 24 253 1.6 4.8 0.00 0.00 0.00 21 1025.7
20260906161437 23 45 1.6 4.8 0.00 0.00 0.00 24 1025.7
20260906160436 22 31 0.0 6.4 0.00 0.00 0.00 27 1025.9
20260906155434 21 329 3.2 4.8 0.00 0.00 0.00 29 1026.0
20260906154433 20 256 0.0 6.4 0.00 0.00 0.00 32 1026.0
20260906153432 20 41 0.0 6.4 0.00 0.00 0.00 34 1026.0
20260906152430 19 338 1.6 8.0 0.00 0.00 0.00 35 1026.0
20260906151429 18 10 1.6 4.8 0.00 0.00 0.00 36 1026.1
20260906150427 18 21 0.0 0.0 0.00 0.00 0.00 39 1026.2
20260906145426 17 17 0.0 4.8 0.00 0.00 0.00 40 1026.2
20260906144425 16 83 0.0 0.0 0.00 0.00 0.00 47 1026.2
20260906143423 15 83 0.0 0.0 0.00 0.00 0.00 48 1026.2
20260906142422 14 83 0.0 1.6 0.00 0.00 0.00 48 1026.2
20260906141421 13 68 0.0 3.2 0.00 0.00 0.00 52 1026.4
20260906140419 12 356 0.0 0.0 0.00 0.00 0.00 57 1026.2
20260906135418 11 204 0.0 0.0 0.00 0.00 0.00 60 1026.2
20260906134416 10 204 0.0 1.6 0.00 0.00 0.00 62 1026.1
20260906133415 10 264 0.0 0.0 0.00 0.00 0.00 64 1026.0
20260906132414 8 264 0.0 0.0 0.00 0.00 0.00 66 1026.0
20260906131412 8 264 0.0 0.0 0.00 0.00 0.00 67 1025.9
20260906130411 8 264 0.0 0.0 0.00 0.00 0.00 68 1025.9
20260906125410 8 264 0.0 0.0 0.00 0.00 0.00 68 1025.7
20260906124408 8 264 0.0 0.0 0.00 0.00 0.00 66 1025.6
20260906123407 8 264 0.0 0.0 0.00 0.00 0.00 66 1025.6
20260906122405 8 264 0.0 0.0 0.00 0.00 0.00 66 1025.6
20260906121404 8 264 0.0 0.0 0.00 0.00 0.00 65 1025.7
20260906120403 8 264 0.0 0.0 0.00 0.00 0.00 64 1025.6
20260906115401 9 264 0.0 0.0 0.00 0.00 0.00 63 1025.7
20260906114400 9 264 0.0 0.0 0.00 0.00 0.00 62 1025.9
20260906113359 9 264 0.0 0.0 0.00 0.00 0.00 62 1025.7
20260906112357 10 155 0.0 0.0 0.00 0.00 0.00 62 1025.6
20260906111356 10 155 0.0 0.0 0.00 0.00 0.00 61 1025.6
20260906110354 10 155 0.0 0.0 0.00 0.00 0.00 60 1025.5
20260906105353 10 155 0.0 1.6 0.00 0.00 0.00 61 1025.5
20260906104352 10 138 0.0 0.0 0.00 0.00 0.00 60 1025.3
20260906103350 10 138 0.0 0.0 0.00 0.00 0.00 59 1025.2
20260906102349 10 138 0.0 0.0 0.00 0.00 0.00 59 1025.1
20260906101348 10 138 0.0 0.0 0.00 0.00 0.00 58 1025.2
20260906100346 10 138 0.0 0.0 0.00 0.00 0.00 59 1025.1
20260906095345 10 138 0.0 0.0 0.00 0.00 0.00 57 1025.0
20260906094343 11 138 0.0 0.0 0.00 0.00 0.00 58 1025.1
20260906093342 10 138 0.0 0.0 0.00 0.00 0.00 57 1025.1
20260906092341 11 138 0.0 0.0 0.00 0.00 0.00 55 1025.0
20260906091339 11 138 0.0 0.0 0.00 0.00 0.00 53 1025.0
20260906090338 11 138 0.0 0.0 0.00 0.00 0.00 52 1024.8
20260906085337 12 138 0.0 0.0 0.00 0.00 0.00 51 1024.8
20260906084335 12 138 0.0 0.0 0.00 0.00 0.00 50 1024.8
20260906083334 12 138 0.0 0.0 0.00 0.00 0.00 48 1024.6
20260906082332 12 138 0.0 0.0 0.00 0.00 0.00 48 1024.6
20260906081331 12 138 0.0 0.0 0.00 0.00 0.00 48 1024.6
20260906080330 12 138 0.0 0.0 0.00 0.00 0.00 48 1024.6
20260906075328 12 138 0.0 0.0 0.00 0.00 0.00 47 1024.6
20260906074327 13 138 0.0 0.0 0.00 0.00 0.00 46 1024.6
20260906073325 13 138 0.0 0.0 0.00 0.00 0.00 46 1024.6
20260906072324 13 138 0.0 0.0 0.00 0.00 0.00 45 1024.6
20260906071323 13 138 0.0 0.0 0.00 0.00 0.00 46 1024.6
20260906070321 13 138 0.0 0.0 0.00 0.00 0.00 45 1024.7
20260906065320 13 138 0.0 0.0 0.00 0.00 0.00 45 1024.6
20260906064319 14 138 0.0 0.0 0.00 0.00 0.00 44 1024.7
20260906063317 15 138 0.0 0.0 0.00 0.00 0.00 43 1024.7
20260906062316 15 138 0.0 0.0 0.00 0.00 0.00 41 1024.6
20260906061315 15 138 0.0 0.0 0.00 0.00 0.00 41 1024.6
20260906060313 15 138 0.0 0.0 0.00 0.00 0.00 40 1024.6
20260906055312 16 138 0.0 0.0 0.00 0.00 0.00 40 1024.5
20260906054310 16 138 0.0 0.0 0.00 0.00 0.00 39 1024.5
20260906053309 16 103 0.0 3.2 0.00 0.00 0.00 39 1024.5
20260906052308 16 228 0.0 0.0 0.00 0.00 0.00 40 1024.5
20260906051306 16 228 0.0 0.0 0.00 0.00 0.00 39 1024.5
20260906050305 16 228 0.0 0.0 0.00 0.00 0.00 39 1024.3
20260906045306 16 228 0.0 0.0 0.00 0.00 0.00 38 1024.2
20260906044302 17 193 1.6 3.2 0.00 0.00 0.00 38 1024.2
20260906043301 17 207 0.0 0.0 0.00 0.00 0.00 37 1024.2
20260906042259 17 198 0.0 0.0 0.00 0.00 0.00 37 1024.2
20260906041258 17 228 0.0 0.0 0.00 0.00 0.00 37 1024.2
20260906040257 17 228 0.0 0.0 0.00 0.00 0.00 37 1024.2
20260906035255 17 228 0.0 0.0 0.00 0.00 0.00 36 1024.1
20260906034254 18 228 0.0 0.0 0.00 0.00 0.00 35 1024.1
20260906033252 18 228 0.0 0.0 0.00 0.00 0.00 35 1024.1
20260906032251 18 228 0.0 0.0 0.00 0.00 0.00 35 1024.1
20260906031250 18 229 1.6 4.8 0.00 0.00 0.00 35 1023.9
20260906030248 18 246 0.0 1.6 0.00 0.00 0.00 35 1023.9
20260906025247 18 300 0.0 0.0 0.00 0.00 0.00 34 1023.8
20260906024245 19 300 0.0 0.0 0.00 0.00 0.00 33 1023.6
20260906023244 20 110 0.0 4.8 0.00 0.00 0.00 31 1023.6
20260906022243 21 350 0.0 3.2 0.00 0.00 0.00 29 1023.4
20260906021241 21 215 0.0 1.6 0.00 0.00 0.00 27 1023.3
20260906020240 22 212 0.0 0.0 0.00 0.00 0.00 26 1023.2
20260906015239 23 212 0.0 3.2 0.00 0.00 0.00 24 1023.1
20260906014237 24 180 0.0 8.0 0.00 0.00 0.00 23 1022.9
20260906013236 25 233 0.0 4.8 0.00 0.00 0.00 22 1022.9
20260906012234 25 246 1.6 8.0 0.00 0.00 0.00 21 1022.9
20260906011233 25 145 0.0 4.8 0.00 0.00 0.00 20 1023.1
20260906010232 26 226 6.4 12.9 0.00 0.00 0.00 20 1022.9
20260906005230 26 243 6.4 17.7 0.00 0.00 0.00 19 1022.9
20260906004229 26 221 1.6 9.7 0.00 0.00 0.00 20 1022.9
20260906003227 26 293 3.2 16.1 0.00 0.00 0.00 20 1023.1
20260906002226 26 224 4.8 14.5 0.00 0.00 0.00 19 1022.9
20260906001225 26 298 4.8 11.3 0.00 0.00 0.00 19 1022.9
20260906000223 26 239 11.3 20.9 0.00 0.00 0.00 17 1022.9
20260905235222 27 243 0.0 14.5 0.00 0.00 0.00 16 1022.8
20260905234220 27 190 1.6 17.7 0.00 0.00 0.00 16 1022.8
20260905233219 27 215 8.0 22.5 0.00 0.00 0.00 16 1022.7
20260905232218 28 131 6.4 20.9 0.00 0.00 0.00 16 1022.7
20260905231216 28 179 1.6 14.5 0.00 0.00 0.00 17 1022.5
20260905230215 28 96 3.2 16.1 0.00 0.00 0.00 15 1022.7
20260905225214 27 239 4.8 11.3 0.00 0.00 0.00 17 1022.7
20260905224212 28 163 0.0 8.0 0.00 0.00 0.00 18 1022.7
20260905223211 28 232 4.8 16.1 0.00 0.00 0.00 18 1022.7
20260905222209 27 193 4.8 11.3 0.00 0.00 0.00 19 1022.9